This is the latest recevied weather packets stored in our database for station/object AA8FM-13. If no packets are shown the sender has not sent any weather packets the latest 10 day(s).
| Time | Temp. | Humidity | Pressure | Rain* | Wind** | Luminosity | Snow |
|---|---|---|---|---|---|---|---|
| 1778104726 | 12.22° C | 96% | 1008.9 hPa | 0 mm | - | 19 W/m² | - |
| 1778104422 | 12.22° C | 95% | 1008.8 hPa | 0 mm | - | 20 W/m² | - |
| 1778104113 | 12.22° C | 95% | 1008.8 hPa | 0 mm | - | 20 W/m² | - |
| 1778103809 | 12.22° C | 95% | 1008.8 hPa | 0 mm | - | 27 W/m² | - |
| 1778103507 | 12.22° C | 94% | 1008.9 hPa | 0 mm | - | 18 W/m² | - |
| 1778103199 | 12.78° C | 94% | 1008.6 hPa | 0 mm | - | 21 W/m² | - |
| 1778102896 | 12.78° C | 93% | 1008.8 hPa | 0 mm | - | 29 W/m² | - |
| 1778102591 | 12.78° C | 92% | 1008.7 hPa | 0 mm | - | 29 W/m² | - |
| 1778102281 | 12.78° C | 93% | 1008.5 hPa | 0 mm | - | 61 W/m² | - |
| 1778101978 | 12.78° C | 93% | 1008.5 hPa | 0 mm | - | 86 W/m² | - |
| 1778101675 | 12.78° C | 93% | 1008.4 hPa | 0 mm | - | 66 W/m² | - |
| 1778101372 | 12.78° C | 94% | 1008.3 hPa | 0 mm | - | 90 W/m² | - |
| 1778101069 | 12.78° C | 94% | 1008.4 hPa | 0 mm | - | 92 W/m² | - |
| 1778100764 | 12.78° C | 94% | 1008.3 hPa | 0 mm | - | 45 W/m² | - |
| 1778100461 | 12.78° C | 94% | 1008.2 hPa | 0 mm | - | 67 W/m² | - |
| 1778100159 | 12.78° C | 93% | 1008.2 hPa | 0 mm | - | 65 W/m² | - |
| 1778099857 | 12.78° C | 93% | 1008 hPa | 0 mm | - | 71 W/m² | - |
| 1778099554 | 12.78° C | 92% | 1007.9 hPa | 0 mm | - | 121 W/m² | - |
| 1778099251 | 12.78° C | 94% | 1008 hPa | 0 mm | - | 131 W/m² | - |
| 1778098947 | 12.78° C | 94% | 1007.9 hPa | 0 mm | - | 180 W/m² | - |
| 1778098644 | 12.78° C | 94% | 1007.9 hPa | 0 mm | - | 98 W/m² | - |
| 1778098341 | 12.78° C | 94% | 1008 hPa | 0 mm | - | 84 W/m² | - |
| 1778098037 | 12.78° C | 95% | 1008.1 hPa | 0 mm | - | 176 W/m² | - |
| 1778097729 | 12.78° C | 95% | 1007.8 hPa | 0 mm | - | 146 W/m² | - |
| 1778097425 | 12.78° C | 95% | 1008 hPa | 0 mm | - | 60 W/m² | - |
* Rain latest hour (hover to see other rain measurements)
** Current wind speed in m/s (hover to see current wind gust speed)